Home > Weather > Ajmān > Past weeks

Flag for United Arab Emirates Weather for the Past 2 Weeks in Ajmān, Ajman, United Arab Emirates

Now
88 °F

Sunny.


Feels Like: 89 °F
Forecast: 79 / 88 °F
Wind: 15 mph from West

Location: Sharjah International Airport

Current Time: May 1, 2016 at 10:54:44 AM

Latest Report: May 1, 2016 at 10:00 AM


Visibility: 10 mi

Pressure: 29.83 "Hg

Humidity: 46%

Dew Point: 64 °F

Location of AjmānLocation

Historic Weather in Ajmān — Graph

°F

Ajmān Temperature Yesterday

Maximum temperature yesterday: 102 °F (at 2:00 PM)
Minimum temperature yesterday: 79 °F (at 5:00 AM)
Average temperature yesterday: 90 °F

High & Low Weather Summary for the Past Weeks

 TemperatureHumidityPressure
High104 °F (Apr 29, 11:00 AM)83% (Apr 18, 4:00 AM)29.98 "Hg (Apr 18, 4:00 AM)
Low64 °F (Apr 23, 6:00 AM)12% (Apr 29, 2:00 PM)29.71 "Hg (Apr 25, 2:00 AM)
Average82 °F46%29.83 "Hg
* Reported Apr 16 10:00 AM — May 1 9:00 AM, Ajmān, Weather by CustomWeather, © 2016

Note: Actual official high and low records may vary slightly from our data, if they occured in-between our weather recording intervals... More about our weather records

Advertising

Ajmān Weather History for the Previous 24 Hours

Scroll right to see more
 ConditionsComfort  
Time TempWeatherWind HumidityBarometerVisibility
9:00 AM
Sun, May 1
88 °FSunny.12 mph46%29.86 "Hg10 mi
8:00 AM86 °FPassing clouds.7 mph49%29.83 "Hg5 mi
7:00 AM81 °FClear.8 mph74%29.83 "Hg5 mi
6:00 AM79 °FClear.9 mph79%29.80 "Hg5 mi
5:00 AM79 °FClear.5 mph79%29.77 "Hg5 mi
4:00 AM81 °FClear.5 mph74%29.77 "Hg5 mi
3:00 AM81 °FClear.3 mph79%29.77 "Hg5 mi
2:00 AM79 °FClear.2 mph79%29.77 "Hg10 mi
1:00 AM81 °FClear.1 mph79%29.80 "Hg10 mi
12:00 AM82 °FClear.10 mph74%29.83 "Hg10 mi
11:00 PM
Sat, Apr 30
86 °FClear.8 mph55%29.83 "Hg10 mi
10:00 PM86 °FPassing clouds.10 mph59%29.86 "HgN/A
9:00 PM90 °FClear.8 mph27%29.83 "Hg10 mi
8:00 PM90 °FClear.12 mph36%29.80 "Hg10 mi
7:00 PM91 °FClear.10 mph20%29.77 "Hg10 mi
6:00 PM95 °FSunny.7 mph16%29.77 "Hg10 mi
5:00 PM97 °FSunny.8 mph17%29.77 "Hg10 mi
4:00 PM100 °FSunny.7 mph12%29.74 "Hg10 mi
3:00 PM100 °FSunny.14 mph15%29.74 "Hg10 mi
2:00 PM102 °FSunny.5 mph13%29.77 "Hg10 mi
1:00 PM99 °FSunny.1 mph18%29.77 "Hg10 mi
12:00 PM99 °FSunny.No wind17%29.80 "Hg10 mi
11:00 AM95 °FSunny.2 mph25%29.83 "Hg10 mi
10:00 AM95 °FSunny.5 mph25%29.83 "Hg10 mi
Weather by CustomWeather, © 2016

See weather overviewHow to use our weather pages